TimePST,TemperatureF,Dew PointF,Humidity,Sea Level PressureIn,VisibilityMPH,Wind Direction,Wind SpeedMPH,Gust SpeedMPH,PrecipitationIn,Events,Conditions,WindDirDegrees,DateUTC
12:55 AM,34.0,25.0,70,30.13,10.0,ENE,8.1,-,N/A,,Clear,70,2013-01-03 08:55:00
1:55 AM,35.1,26.1,70,30.11,10.0,ENE,6.9,-,N/A,,Clear,70,2013-01-03 09:55:00
2:55 AM,36.0,25.0,64,30.12,10.0,East,8.1,-,N/A,,Clear,80,2013-01-03 10:55:00
3:55 AM,35.1,25.0,67,30.09,10.0,East,11.5,-,N/A,,Clear,80,2013-01-03 11:55:00
4:55 AM,35.1,25.0,67,30.08,10.0,ENE,12.7,-,N/A,,Clear,70,2013-01-03 12:55:00
5:55 AM,35.1,25.0,67,30.07,10.0,East,8.1,-,N/A,,Clear,90,2013-01-03 13:55:00
6:55 AM,35.1,25.0,67,30.06,10.0,East,10.4,-,N/A,,Clear,80,2013-01-03 14:55:00
7:55 AM,34.0,25.0,70,30.07,10.0,East,9.2,-,N/A,,Clear,80,2013-01-03 15:55:00
8:55 AM,37.0,25.0,62,30.08,10.0,ENE,10.4,-,N/A,,Clear,60,2013-01-03 16:55:00
9:55 AM,39.0,26.1,60,30.09,10.0,ENE,12.7,-,N/A,,Clear,60,2013-01-03 17:55:00
10:55 AM,42.1,26.1,53,30.09,10.0,ENE,12.7,-,N/A,,Clear,70,2013-01-03 18:55:00
11:55 AM,41.0,26.1,55,30.08,10.0,ENE,10.4,-,N/A,,Overcast,70,2013-01-03 19:55:00
12:55 PM,41.0,28.0,60,30.07,10.0,East,10.4,-,0.00,,Overcast,80,2013-01-03 20:55:00
1:55 PM,44.1,24.1,45,30.06,10.0,ESE,10.4,-,0.00,,Overcast,120,2013-01-03 21:55:00
2:55 PM,44.1,24.1,45,30.05,10.0,ESE,12.7,-,N/A,,Overcast,120,2013-01-03 22:55:00
3:55 PM,42.1,28.0,58,30.05,9.0,ESE,15.0,21.9,0.00,Rain,Light Rain,110,2013-01-03 23:55:00
4:55 PM,39.9,30.9,70,30.04,10.0,ESE,13.8,24.2,0.00,Rain,Light Rain,110,2013-01-04 00:55:00
5:46 PM,41.0,33.8,76,30.05,10.0,ESE,15.0,-,0.00,,Overcast,110,2013-01-04 01:46:00
5:55 PM,41.0,34.0,76,30.04,10.0,ESE,15.0,-,0.00,,Overcast,110,2013-01-04 01:55:00
6:55 PM,41.0,37.0,86,30.05,10.0,East,11.5,-,0.00,,Overcast,100,2013-01-04 02:55:00
7:55 PM,42.1,37.9,85,30.07,10.0,ENE,3.5,-,N/A,,Overcast,70,2013-01-04 03:55:00
8:55 PM,50.0,46.0,86,30.09,7.0,SSW,10.4,19.6,0.00,Rain,Light Rain,200,2013-01-04 04:55:00
9:05 PM,50.0,46.4,87,30.09,4.0,South,17.3,27.6,0.00,Rain,Light Rain,190,2013-01-04 05:05:00
9:32 PM,50.0,46.4,87,30.10,3.0,SSW,17.3,28.8,0.02,Rain,Light Rain,200,2013-01-04 05:32:00
9:39 PM,50.0,46.4,87,30.10,2.5,SSW,17.3,28.8,0.02,Rain,Light Rain,200,2013-01-04 05:39:00
9:55 PM,50.0,46.9,89,30.11,3.0,SSW,19.6,28.8,0.04,Rain,Light Rain,200,2013-01-04 05:55:00
9:58 PM,50.0,46.4,87,30.11,2.5,SSW,19.6,28.8,0.00,Rain,Light Rain,200,2013-01-04 05:58:00
10:12 PM,50.0,46.4,87,30.12,2.5,SSW,18.4,27.6,0.01,Rain,Light Rain,200,2013-01-04 06:12:00
10:28 PM,50.0,48.2,94,30.12,2.0,SSW,10.4,26.5,0.02,Rain,Light Rain,210,2013-01-04 06:28:00
10:50 PM,50.0,48.2,94,30.13,1.8,SSW,15.0,23.0,0.03,Rain,Light Rain,210,2013-01-04 06:50:00
10:55 PM,50.0,48.0,93,30.14,1.8,SW,15.0,24.2,0.04,Rain,Light Rain,220,2013-01-04 06:55:00
11:02 PM,50.0,48.2,94,30.14,2.5,SW,15.0,26.5,0.00,Rain,Light Rain,220,2013-01-04 07:02:00
11:19 PM,48.2,46.4,93,30.15,4.0,SW,13.8,24.2,0.02,Rain,Light Rain,230,2013-01-04 07:19:00
11:45 PM,48.2,46.4,93,30.17,9.0,WSW,11.5,-,0.02,,Overcast,240,2013-01-04 07:45:00
11:55 PM,48.9,46.9,93,30.17,6.0,SW,11.5,21.9,0.02,Rain,Light Rain,230,2013-01-04 07:55:00